sat.trackr.live / text

‹ back to catalog

ELECTRON R/B

NORAD 69179 · 2026-112C

ROCKET_BODY UNKNOWN UNKNOWN

§ Identity

Operator
Country
US
Launch date
2026-05-22
Launch site
RLLB
Launch vehicle
Mass (kg)
RCS (m²)

External: N2YO · Heavens-Above · Gunter

§ Orbital elements

Epoch: 2026-05-22T20:52:31.253952Z

Period
92.20 min
Inclination
44.9083°
Eccentricity
0.0286326
Mean motion
15.61899702 rev/d
Perigee alt
188.6 km
Apogee alt
575.7 km
Semi-major
6,760.3 km
B*
1.4133e-4
RAAN
325.1175°
Arg perigee
260.0946°
Mean anomaly
96.7520°
Rev number
7

§ Raw data

ELECTRON R/B1 69179U 26112C   26142.86980618  .00129570  85042-5  14133-3 0  99982 69179  44.9083 325.1175 0286326 260.0946  96.7520 15.61899702    74

JSON: /api/v1/satellites/69179 · /tle

For live sub-satellite position, see the globe view (requires WebGL).

§ Visibility from observer

Set your observer location to see the next 7 days of passes ≥ 10°. The values pass through the URL so the page stays shareable.

No JS? Fill the form by hand. The geolocation button needs JavaScript.